Location: Czekanka
(50.4925°N, 19.2643°E)
Time: 22:09:38
(UTC+00:00)

Cosmos 2263 Rocket - Pass Details

Date: 22 September 2024
Orbit: 821 x 849 km, 71.0° (Epoch: 14 October)

Event Time Altitude Azimuth Distance (km) Brightness Sun altitude
Rises 01:50:13 0° 144° (SE) 3,370 5.4 -24.7°
Reaches altitude 10° 01:54:31 10° 113° (ESE) 2,451 5.0 -24.1°
Maximum altitude 01:56:15 11° 94° (E) 2,352 5.2 -23.9°
Drops below altitude 10° 01:58:00 10° 76° (ENE) 2,463 5.6 -23.7°
Sets 02:02:20 0° 45° (NE) 3,412 6.7 -23.1°
